Find Starlink 11182

NORAD ID: 60399 Int'l Des: 2024-141 Owner: SPXS Country: US Constellation: starlink operational
LEOCIRCULAR

当前视图

正在加载3D地球...

About Starlink 11182

Starlink 11182 (NORAD 60399) is a starlink constellation satellite (v2 mini d2c) launched Aug 10, 2024 by SPXS of US. It operates in LEO, CIRCULAR orbit with a mass of 960.00 kg.

关于 Starlink 11182

正在加载描述...

即将过境

Passes for default location (London). Set your location on the main map for personalized predictions.

高度历史

Loading altitude history...

两行轨道根数

1 60399U 24141B 26170.93397581 .00001834 00000-0 19979-4 0 9995
2 60399 53.1579 302.0780 0000808 78.7981 281.3127 15.69723114107804
Epoch: Jun 19, 2026 • Age: 5 hours

当前状态

高度 363.9 km
速度 7.70 km/s
星下点 44.67°N, 112.69°E
发射日期 Aug 10, 2024
运行时间 1.8 years
类型 internet

技术详情

分类 Payload
质量 960.00 kg
干质量 910.00 kg
总质量 960.00 kg
长度 0.30 m
直径 4.10 m
跨度 29.00 m
形状 Box + pan
制造商 SPXS
平台类型 Starlink V2MD
阶段状态 In Orbit
所有者/国家 SPXS/US

Most Searched